When you browse on this site, cookies collect data to enhance your experience and personalize the content and advertising you see.
Visit our Privacy Policy to learn more. By continuing to use the site, you agree to this use of cookies and data.

Météo par heure à Richmond

Ce jour, 13 Juillet, Lundi

Heure Température Précipitation Vent Pression Humidité
00:00 +25°C° 0 mm 1 m/s 753 mmHg 76%
01:00 +22°C° 0 mm 0 m/s 754 mmHg 78%
02:00 +22°C° 0 mm 0 m/s 754 mmHg 79%
03:00 +23°C° 0 mm 1 m/s 753 mmHg 81%
04:00 +23°C° 0 mm 1 m/s 753 mmHg 82%
05:00 +24°C° 0 mm 1 m/s 754 mmHg 78%
06:00 +24°C° 0 mm 1 m/s 754 mmHg 75%
07:00 +25°C° 0 mm 1 m/s 754 mmHg 71%
08:00 +27°C° 0 mm 2 m/s 755 mmHg 64%
09:00 +29°C° 0 mm 2 m/s 755 mmHg 56%
10:00 +31°C° 0 mm 2 m/s 755 mmHg 48%
11:00 +34°C° 0 mm 2 m/s 755 mmHg 44%
12:00 +34°C° 0 mm 1 m/s 755 mmHg 40%
13:00 +34°C° 0 mm 0 m/s 755 mmHg 36%
14:00 +35°C° 0 mm 1 m/s 755 mmHg 39%
15:00 +35°C° 0 mm 1 m/s 754 mmHg 41%
16:00 +34°C° 0 mm 1 m/s 754 mmHg 43%
17:00 +32°C° 0 mm 1 m/s 754 mmHg 48%
18:00 +31°C° 0 mm 2 m/s 754 mmHg 54%
19:00 +29°C° 0 mm 2 m/s 755 mmHg 59%
20:00 +28°C° 0 mm 2 m/s 755 mmHg 65%
21:00 +27°C° 0 mm 2 m/s 755 mmHg 71%
22:00 +26°C° 0 mm 2 m/s 755 mmHg 78%
23:00 +25°C° 0 mm 1 m/s 755 mmHg 80%

Demain, 14 Juillet, Mardi

Heure Température Précipitation Vent Pression Humidité
00:00 +24°C° 0 mm 1 m/s 755 mmHg 83%
01:00 +24°C° 0 mm 1 m/s 756 mmHg 86%
02:00 +24°C° 0.1 mm 1 m/s 756 mmHg 86%
03:00 +23°C° 0.1 mm 1 m/s 756 mmHg 86%
04:00 +23°C° 0.1 mm 1 m/s 756 mmHg 85%
05:00 +24°C° 0.3 mm 1 m/s 756 mmHg 84%
06:00 +24°C° 0.3 mm 1 m/s 756 mmHg 83%
07:00 +25°C° 0.3 mm 1 m/s 757 mmHg 82%
08:00 +26°C° 0.1 mm 1 m/s 757 mmHg 75%
09:00 +28°C° 0.1 mm 2 m/s 757 mmHg 68%
10:00 +29°C° 0.1 mm 2 m/s 758 mmHg 62%
11:00 +31°C° 0.1 mm 2 m/s 757 mmHg 56%
12:00 +32°C° 0.1 mm 2 m/s 757 mmHg 51%
13:00 +34°C° 0.1 mm 1 m/s 757 mmHg 45%
14:00 +33°C° 0 mm 1 m/s 757 mmHg 48%
15:00 +32°C° 0 mm 1 m/s 757 mmHg 50%
16:00 +32°C° 0 mm 1 m/s 757 mmHg 53%
17:00 +31°C° 0 mm 1 m/s 757 mmHg 57%
18:00 +30°C° 0 mm 1 m/s 758 mmHg 61%
19:00 +29°C° 0 mm 2 m/s 758 mmHg 65%
20:00 +27°C° 0 mm 1 m/s 758 mmHg 69%
21:00 +26°C° 0 mm 1 m/s 759 mmHg 73%
22:00 +25°C° 0 mm 1 m/s 759 mmHg 77%
23:00 +25°C° 0 mm 1 m/s 759 mmHg 79%

Après-demain, 15 Juillet, Mercredi

Heure Température Précipitation Vent Pression Humidité
00:00 +24°C° 0 mm 1 m/s 759 mmHg 82%
01:00 +22°C° 0 mm 0 m/s 760 mmHg 84%
02:00 +21°C° 0 mm 0 m/s 760 mmHg 85%
03:00 +21°C° 0 mm 0 m/s 760 mmHg 85%
04:00 +21°C° 0 mm 0 m/s 760 mmHg 86%
05:00 +22°C° 0 mm 0 m/s 760 mmHg 82%
06:00 +23°C° 0 mm 0 m/s 760 mmHg 79%
07:00 +24°C° 0 mm 0 m/s 761 mmHg 75%
08:00 +26°C° 0 mm 0 m/s 761 mmHg 66%
09:00 +30°C° 0 mm 1 m/s 761 mmHg 56%
10:00 +33°C° 0 mm 1 m/s 761 mmHg 47%
11:00 +34°C° 0 mm 1 m/s 761 mmHg 45%
12:00 +35°C° 0 mm 1 m/s 761 mmHg 43%
13:00 +35°C° 0 mm 1 m/s 761 mmHg 41%
14:00 +35°C° 0 mm 1 m/s 760 mmHg 43%
15:00 +35°C° 0 mm 1 m/s 760 mmHg 44%
16:00 +34°C° 0 mm 1 m/s 759 mmHg 46%
17:00 +33°C° 0 mm 1 m/s 760 mmHg 51%
18:00 +31°C° 0 mm 2 m/s 760 mmHg 57%
19:00 +29°C° 0 mm 3 m/s 760 mmHg 63%
20:00 +28°C° 0 mm 3 m/s 761 mmHg 66%
21:00 +27°C° 0 mm 3 m/s 761 mmHg 69%
22:00 +26°C° 0 mm 3 m/s 761 mmHg 72%
23:00 +26°C° 0 mm 3 m/s 761 mmHg 74%

16 Juillet, Jeudi

Heure Température Précipitation Vent Pression Humidité
00:00 +25°C° 0 mm 3 m/s 761 mmHg 75%
01:00 +25°C° 0 mm 3 m/s 761 mmHg 76%
02:00 +25°C° 0 mm 2 m/s 761 mmHg 78%
03:00 +24°C° 0 mm 2 m/s 761 mmHg 80%
04:00 +24°C° 0 mm 2 m/s 761 mmHg 83%
05:00 +25°C° 0.1 mm 2 m/s 762 mmHg 82%
06:00 +25°C° 0.1 mm 2 m/s 762 mmHg 81%
07:00 +26°C° 0.1 mm 2 m/s 762 mmHg 80%
08:00 +26°C° 0.1 mm 2 m/s 762 mmHg 79%
09:00 +27°C° 0.1 mm 2 m/s 762 mmHg 79%
10:00 +27°C° 0.1 mm 2 m/s 762 mmHg 78%
11:00 +29°C° 0.3 mm 2 m/s 762 mmHg 71%
12:00 +31°C° 0.3 mm 3 m/s 761 mmHg 63%
13:00 +35°C° 0.3 mm 3 m/s 761 mmHg 55%
14:00 +35°C° 0.1 mm 4 m/s 761 mmHg 53%
15:00 +35°C° 0.1 mm 4 m/s 760 mmHg 51%
16:00 +35°C° 0.1 mm 4 m/s 760 mmHg 50%
17:00 +34°C° 0.4 mm 4 m/s 760 mmHg 58%
18:00 +32°C° 0.4 mm 4 m/s 760 mmHg 66%
19:00 +29°C° 0.4 mm 3 m/s 760 mmHg 75%
20:00 +28°C° 0.1 mm 3 m/s 760 mmHg 78%
21:00 +27°C° 0.1 mm 4 m/s 760 mmHg 81%
22:00 +26°C° 0.1 mm 4 m/s 761 mmHg 84%
23:00 +26°C° 0.6 mm 4 m/s 760 mmHg 86%

17 Juillet, Vendredi

Heure Température Précipitation Vent Pression Humidité
00:00 +26°C° 0.6 mm 3 m/s 760 mmHg 88%
01:00 +25°C° 0.6 mm 3 m/s 760 mmHg 90%
02:00 +25°C° 0.6 mm 3 m/s 760 mmHg 91%
03:00 +25°C° 0.6 mm 3 m/s 760 mmHg 91%
04:00 +25°C° 0.6 mm 3 m/s 760 mmHg 92%
05:00 +25°C° 1.7 mm 3 m/s 760 mmHg 91%
06:00 +25°C° 1.7 mm 3 m/s 760 mmHg 90%
07:00 +25°C° 1.7 mm 3 m/s 760 mmHg 88%
08:00 +27°C° 1.7 mm 2 m/s 760 mmHg 83%
09:00 +29°C° 1.7 mm 2 m/s 760 mmHg 77%
10:00 +30°C° 1.7 mm 2 m/s 760 mmHg 72%
11:00 +31°C° 1.1 mm 2 m/s 760 mmHg 69%
12:00 +32°C° 1.1 mm 1 m/s 760 mmHg 67%
13:00 +34°C° 1.1 mm 1 m/s 759 mmHg 64%
14:00 +34°C° 0.6 mm 1 m/s 759 mmHg 62%
15:00 +34°C° 0.6 mm 1 m/s 759 mmHg 59%
16:00 +34°C° 0.6 mm 1 m/s 759 mmHg 57%
17:00 +32°C° 0.2 mm 1 m/s 759 mmHg 64%
18:00 +31°C° 0.2 mm 1 m/s 759 mmHg 72%
19:00 +29°C° 0.2 mm 1 m/s 759 mmHg 80%
20:00 +28°C° 0.8 mm 1 m/s 759 mmHg 82%
21:00 +28°C° 0.8 mm 1 m/s 759 mmHg 84%
22:00 +25°C° 0.8 mm 0 m/s 760 mmHg 86%
23:00 +25°C° 0.7 mm 0 m/s 760 mmHg 86%

18 Juillet, Samedi

Heure Température Précipitation Vent Pression Humidité
00:00 +25°C° 0.7 mm 0 m/s 760 mmHg 85%
01:00 +25°C° 0.7 mm 0 m/s 760 mmHg 85%
02:00 +24°C° 0.5 mm 0 m/s 760 mmHg 86%
03:00 +24°C° 0.5 mm 0 m/s 760 mmHg 87%
04:00 +23°C° 0.5 mm 0 m/s 760 mmHg 88%
05:00 +25°C° 0 mm 1 m/s 760 mmHg 87%
06:00 +26°C° 0 mm 1 m/s 760 mmHg 85%
07:00 +26°C° 0 mm 1 m/s 760 mmHg 84%
08:00 +28°C° 0 mm 1 m/s 760 mmHg 74%
09:00 +31°C° 0 mm 1 m/s 760 mmHg 63%
10:00 +33°C° 0 mm 1 m/s 760 mmHg 53%
11:00 +34°C° 0 mm 1 m/s 760 mmHg 49%
12:00 +36°C° 0 mm 1 m/s 760 mmHg 45%
13:00 +37°C° 0 mm 1 m/s 759 mmHg 42%
14:00 +36°C° 0.1 mm 1 m/s 759 mmHg 47%
15:00 +34°C° 0.1 mm 1 m/s 759 mmHg 53%
16:00 +34°C° 0.1 mm 2 m/s 758 mmHg 59%
17:00 +31°C° 0.4 mm 2 m/s 758 mmHg 65%
18:00 +30°C° 0.4 mm 2 m/s 758 mmHg 71%
19:00 +28°C° 0.4 mm 2 m/s 758 mmHg 77%
20:00 +28°C° 0 mm 2 m/s 759 mmHg 79%
21:00 +27°C° 0 mm 2 m/s 759 mmHg 81%
22:00 +26°C° 0 mm 2 m/s 759 mmHg 83%
23:00 +26°C° 0 mm 2 m/s 759 mmHg 84%
Voir plus